This is the latest recevied weather packets stored in our database for station/object KE0LFX. If no packets are shown the sender has not sent any weather packets the latest 10 day(s).
| Time | Temp. | Humidity | Pressure | Rain* | Wind** | Luminosity | Snow |
|---|---|---|---|---|---|---|---|
| 1778126915 | 6.11° C | 55% | 1020 hPa | 0 mm | - | 0 W/m² | - |
| 1778126610 | 6.67° C | 54% | 1020.1 hPa | 0 mm | - | 0 W/m² | - |
| 1778126306 | 6.67° C | 54% | 1020 hPa | 0 mm | - | 0 W/m² | - |
| 1778126002 | 6.67° C | 53% | 1020.1 hPa | 0 mm | - | 0 W/m² | - |
| 1778125700 | 7.22° C | 53% | 1020.1 hPa | 0 mm | - | 0 W/m² | - |
| 1778125397 | 7.22° C | 52% | 1019.9 hPa | 0 mm | - | 0 W/m² | - |
| 1778125095 | 6.67° C | 54% | 1020.2 hPa | 0 mm | - | 0 W/m² | - |
| 1778124792 | 6.67° C | 55% | 1020.1 hPa | 0 mm | - | 0 W/m² | - |
| 1778124489 | 6.11° C | 56% | 1020.4 hPa | 0 mm | - | 0 W/m² | - |
| 1778124185 | 6.67° C | 55% | 1020.1 hPa | 0 mm | - | 0 W/m² | - |
| 1778123882 | 6.67° C | 55% | 1020.2 hPa | 0 mm | - | 0 W/m² | - |
| 1778123579 | 6.67° C | 54% | 1020.3 hPa | 0 mm | - | 0 W/m² | - |
| 1778123275 | 6.67° C | 54% | 1020.4 hPa | 0 mm | - | 0 W/m² | - |
| 1778122973 | 6.67° C | 54% | 1020.3 hPa | 0 mm | - | 0 W/m² | - |
| 1778122670 | 7.22° C | 54% | 1020.3 hPa | 0 mm | - | 0 W/m² | - |
| 1778122367 | 7.22° C | 54% | 1020.4 hPa | 0 mm | - | 0 W/m² | - |
| 1778122065 | 7.22° C | 53% | 1020.5 hPa | 0 mm | - | 0 W/m² | - |
| 1778121762 | 7.78° C | 53% | 1020.4 hPa | 0 mm | - | 0 W/m² | - |
| 1778121457 | 7.78° C | 53% | 1020.4 hPa | 0 mm | - | 0 W/m² | - |
| 1778121155 | 7.78° C | 52% | 1020.4 hPa | 0 mm | - | 0 W/m² | - |
| 1778120852 | 7.78° C | 54% | 1020.4 hPa | 0 mm | - | 0 W/m² | - |
| 1778120548 | 7.78° C | 54% | 1020.2 hPa | 0 mm | - | 0 W/m² | - |
| 1778120244 | 7.78° C | 52% | 1020.1 hPa | 0 mm | - | 0 W/m² | - |
| 1778119940 | 8.33° C | 52% | 1020.1 hPa | 0 mm | - | 0 W/m² | - |
| 1778119639 | 8.33° C | 51% | 1020 hPa | 0 mm | - | 0 W/m² | - |
* Rain latest hour (hover to see other rain measurements)
** Current wind speed in m/s (hover to see current wind gust speed)